Location: Austin
(30.3000°N, 97.7500°W)
Time: 06:29:21
(UTC-05:00)

Cosmos 2297 - Pass Details

Date: 01 August 2025
Orbit: 833 x 859 km, 71.0° (Epoch: 10 May)

Event Time Altitude Azimuth Distance (km) Brightness Sun altitude
Rises 05:54:23 0° 330° (NNW) 3,433 6.9 -11.7°
Reaches altitude 10° 05:56:59 10° 323° (NW) 2,494 6.1 -11.2°
Maximum altitude 06:02:15 39° 256° (WSW) 1,258 4.2 -10.2°
Drops below altitude 10° 06:07:31 10° 189° (S) 2,481 5.8 -9.1°
Sets 06:10:06 0° 181° (S) 3,412 6.6 -8.7°
